Terminal Aerodrome Forecast
Issued by NWS Caribou, ME

Home | Current Version | Previous Version | Text Only | Print | Product List | Glossary On
Versions: 1 2 3 4 5 6 7 8 9 10 11 12 13 14 15 16 17
000
FTUS41 KCAR 290500 RRA
TAFBGR
TAF
KBGR 290554Z 2906/3006 33010KT P6SM FEW035
      TEMPO 2906/2908 OVC025
     FM291400 35010G16KT P6SM SKC
     FM300000 VRB03KT P6SM SKC=

USA.gov is the U.S. government's official web portal to all federal, state and local government web resources and services.